EZY25K EGCC-EPKK

Flight info

Callsign EZY25K
Flight time 2h 12m
Altitude 37000
Route DESIG L603 LAMSO DCT PETIK DCT LARET DCT MILGU DCT LASIS T714 GODLO DCT MAPIK
Aircraft A320/M-SDE3FGHIRWY/LB1

Departure

Time 2026-04-30 18:16
Airport Manchester Airport (EGCC)

Arrival

Time 2026-04-30 20:28
Airport Kraków John Paul II International Airport (EPKK)
Time Latitude Longitude Altitude Speed Heading
2026-04-30 17:52 53.36240 -2.27937 248 ft 0 kts 86°
2026-04-30 18:01 53.36239 -2.27966 247 ft 4 kts 86°
2026-04-30 18:02 53.36236 -2.28101 247 ft 4 kts 96°
2026-04-30 18:02 53.36276 -2.28200 247 ft 0 kts 135°
2026-04-30 18:05 53.36239 -2.28134 247 ft 0 kts 139°
2026-04-30 18:06 53.36004 -2.27898 247 ft 17 kts 138°
2026-04-30 18:07 53.35493 -2.27917 245 ft 13 kts 186°
2026-04-30 18:08 53.35152 -2.28463 231 ft 29 kts 231°
2026-04-30 18:09 53.34712 -2.29294 216 ft 18 kts 218°
2026-04-30 18:10 53.34675 -2.29331 207 ft 0 kts 198°
2026-04-30 18:14 53.34565 -2.29317 209 ft 20 kts 150°
2026-04-30 18:15 53.34573 -2.29152 211 ft 0 kts 49°
2026-04-30 18:15 53.35979 -2.26267 535 ft 182 kts 56°
2026-04-30 18:16 53.37641 -2.22778 1743 ft 212 kts 58°
2026-04-30 18:16 53.39620 -2.18550 2809 ft 247 kts 58°
2026-04-30 18:17 53.40705 -2.16246 3526 ft 256 kts 58°
2026-04-30 18:17 53.41819 -2.13876 4308 ft 263 kts 57°
2026-04-30 18:17 53.44174 -2.08863 5690 ft 281 kts 56°
2026-04-30 18:18 53.45404 -2.06245 6571 ft 283 kts 56°
2026-04-30 18:18 53.46628 -2.03641 7422 ft 285 kts 57°
2026-04-30 18:18 53.47862 -2.01012 8234 ft 289 kts 57°
2026-04-30 18:18 53.49099 -1.98382 9023 ft 293 kts 56°
2026-04-30 18:19 53.50377 -1.95682 9809 ft 298 kts 56°
2026-04-30 18:19 53.51522 -1.92796 10534 ft 296 kts 70°
2026-04-30 18:19 53.52102 -1.89511 11150 ft 297 kts 88°
2026-04-30 18:19 53.51921 -1.86006 11358 ft 311 kts 107°
2026-04-30 18:20 53.51342 -1.82376 11550 ft 332 kts 110°
2026-04-30 18:20 53.50649 -1.78546 11720 ft 352 kts 111°
2026-04-30 18:20 53.49943 -1.74536 12218 ft 361 kts 109°
2026-04-30 18:20 53.49278 -1.70446 12873 ft 365 kts 108°
2026-04-30 18:21 53.48614 -1.66313 13557 ft 368 kts 108°
2026-04-30 18:21 53.47926 -1.62154 14223 ft 371 kts 109°
2026-04-30 18:21 53.47212 -1.57979 14806 ft 374 kts 109°
2026-04-30 18:21 53.46471 -1.53772 15347 ft 377 kts 110°
2026-04-30 18:22 53.45710 -1.49532 15868 ft 382 kts 110°
2026-04-30 18:22 53.44150 -1.40903 16985 ft 390 kts 109°
2026-04-30 18:22 53.43357 -1.36528 17534 ft 394 kts 109°
2026-04-30 18:23 53.42556 -1.32110 18073 ft 398 kts 109°
2026-04-30 18:23 53.41743 -1.27629 18582 ft 402 kts 109°
2026-04-30 18:23 53.40935 -1.23184 19047 ft 406 kts 109°
2026-04-30 18:23 53.40111 -1.18655 19539 ft 408 kts 109°
2026-04-30 18:24 53.38446 -1.09522 20500 ft 412 kts 110°
2026-04-30 18:24 53.37605 -1.04932 20964 ft 413 kts 110°
2026-04-30 18:24 53.36757 -1.00317 21401 ft 416 kts 109°
2026-04-30 18:25 53.35901 -0.95678 21823 ft 418 kts 110°
2026-04-30 18:25 53.34177 -0.86344 22659 ft 422 kts 110°
2026-04-30 18:25 53.33302 -0.81633 23060 ft 424 kts 110°
2026-04-30 18:26 53.31535 -0.72174 23828 ft 428 kts 110°
2026-04-30 18:26 53.30645 -0.67424 24147 ft 429 kts 110°
2026-04-30 18:26 53.29752 -0.62653 24450 ft 431 kts 110°
2026-04-30 18:27 53.27947 -0.53048 25056 ft 435 kts 110°
2026-04-30 18:27 53.27035 -0.48229 25337 ft 436 kts 110°
2026-04-30 18:28 53.25194 -0.38527 25905 ft 440 kts 110°
2026-04-30 18:28 53.24265 -0.33658 26200 ft 440 kts 110°
2026-04-30 18:28 53.22399 -0.23902 26731 ft 443 kts 110°
2026-04-30 18:29 53.21460 -0.18998 26974 ft 444 kts 110°
2026-04-30 18:29 53.18617 -0.04251 27767 ft 445 kts 111°
2026-04-30 18:30 53.16721 0.05493 28372 ft 444 kts 110°
2026-04-30 18:30 53.14814 0.15266 29040 ft 442 kts 111°
2026-04-30 18:31 53.13863 0.20132 29372 ft 442 kts 111°
2026-04-30 18:31 53.11962 0.29838 30046 ft 440 kts 111°
2026-04-30 18:32 53.10057 0.39485 30664 ft 438 kts 111°
2026-04-30 18:32 53.09102 0.44290 30960 ft 437 kts 111°
2026-04-30 18:32 53.07197 0.53864 31495 ft 436 kts 111°
2026-04-30 18:33 53.06240 0.58657 31740 ft 436 kts 111°
2026-04-30 18:33 53.04320 0.68215 32305 ft 435 kts 111°
2026-04-30 18:33 53.03363 0.72980 32601 ft 434 kts 111°
2026-04-30 18:34 53.02406 0.77728 32896 ft 433 kts 111°
2026-04-30 18:34 53.00495 0.87171 33490 ft 430 kts 111°
2026-04-30 18:34 52.99538 0.91871 33805 ft 429 kts 111°
2026-04-30 18:35 52.98584 0.96551 34109 ft 427 kts 111°
2026-04-30 18:35 52.97732 1.01269 34381 ft 429 kts 105°
2026-04-30 18:35 52.97168 1.06135 34594 ft 430 kts 103°
2026-04-30 18:36 52.96054 1.15891 35007 ft 430 kts 103°
2026-04-30 18:36 52.95491 1.20768 35209 ft 430 kts 103°
2026-04-30 18:36 52.94353 1.30520 35602 ft 431 kts 103°
2026-04-30 18:37 52.93786 1.35334 35785 ft 431 kts 103°
2026-04-30 18:37 52.93200 1.40280 35974 ft 431 kts 103°
2026-04-30 18:37 52.92632 1.45091 36144 ft 431 kts 103°
2026-04-30 18:37 52.92049 1.50035 36317 ft 432 kts 103°
2026-04-30 18:38 52.91479 1.54850 36464 ft 432 kts 103°
2026-04-30 18:38 52.90897 1.59741 36633 ft 432 kts 103°
2026-04-30 18:38 52.90310 1.64626 36797 ft 432 kts 103°
2026-04-30 18:38 52.89720 1.69515 36957 ft 433 kts 103°
2026-04-30 18:39 52.89127 1.74405 37113 ft 433 kts 103°
2026-04-30 18:39 52.88534 1.79281 37256 ft 433 kts 103°
2026-04-30 18:39 52.87938 1.84186 37281 ft 436 kts 103°
2026-04-30 18:40 52.86738 1.94061 37283 ft 438 kts 103°
2026-04-30 18:40 52.85519 2.03942 37279 ft 438 kts 103°
2026-04-30 18:41 52.84293 2.13791 37281 ft 437 kts 103°
2026-04-30 18:41 52.83065 2.23634 37288 ft 436 kts 104°
2026-04-30 18:42 52.81827 2.33453 37289 ft 436 kts 104°
2026-04-30 18:42 52.79955 2.48165 37294 ft 437 kts 104°
2026-04-30 18:45 52.72971 3.02053 37302 ft 436 kts 102°
2026-04-30 18:46 52.72005 3.11941 37312 ft 437 kts 99°
2026-04-30 18:46 52.71189 3.21862 37308 ft 436 kts 99°
2026-04-30 18:47 52.70324 3.31766 37315 ft 436 kts 100°
2026-04-30 18:47 52.69385 3.41642 37315 ft 436 kts 100°
2026-04-30 18:48 52.68426 3.51507 37318 ft 435 kts 100°
2026-04-30 18:48 52.67475 3.61356 37317 ft 435 kts 100°
2026-04-30 18:49 52.66526 3.71208 37321 ft 435 kts 100°
2026-04-30 18:49 52.65564 3.81043 37314 ft 435 kts 100°
2026-04-30 18:50 52.64599 3.90869 37316 ft 435 kts 101°
2026-04-30 18:50 52.63784 3.99046 37319 ft 435 kts 100°
2026-04-30 18:51 52.62796 4.08850 37327 ft 434 kts 100°
2026-04-30 18:51 52.61800 4.18666 37327 ft 435 kts 100°
2026-04-30 18:52 52.60847 4.28496 37338 ft 435 kts 99°
2026-04-30 18:52 52.59991 4.38348 37339 ft 435 kts 99°
2026-04-30 18:53 52.59139 4.48225 37340 ft 436 kts 98°
2026-04-30 18:53 52.58264 4.58075 37340 ft 435 kts 99°
2026-04-30 18:54 52.57358 4.67917 37343 ft 435 kts 99°
2026-04-30 18:54 52.56451 4.77686 37336 ft 435 kts 99°
2026-04-30 18:55 52.55532 4.87572 37327 ft 435 kts 99°
2026-04-30 18:55 52.54154 5.02294 37353 ft 437 kts 99°
2026-04-30 18:56 52.52740 5.17201 37322 ft 443 kts 99°
2026-04-30 18:57 52.51285 5.32196 37328 ft 446 kts 99°
2026-04-30 18:57 52.50302 5.42268 37333 ft 447 kts 99°
2026-04-30 18:58 52.48800 5.57420 37330 ft 449 kts 99°
2026-04-30 18:59 52.47287 5.72598 37336 ft 450 kts 99°
2026-04-30 19:00 52.45227 5.92860 37337 ft 451 kts 99°
2026-04-30 19:01 52.43127 6.13140 37350 ft 452 kts 99°
2026-04-30 19:02 52.41528 6.28368 37356 ft 452 kts 98°
2026-04-30 19:03 52.39359 6.48688 37356 ft 453 kts 98°
2026-04-30 19:04 52.37150 6.69016 37363 ft 454 kts 99°
2026-04-30 19:05 52.34913 6.89289 37354 ft 454 kts 99°
2026-04-30 19:06 52.32638 7.09625 37368 ft 455 kts 99°
2026-04-30 19:06 52.30899 7.24888 37375 ft 455 kts 99°
2026-04-30 19:07 52.29127 7.40219 37384 ft 456 kts 99°
2026-04-30 19:08 52.26760 7.60506 37387 ft 457 kts 99°
2026-04-30 19:09 52.24954 7.75785 37387 ft 457 kts 99°
2026-04-30 19:09 52.23738 7.85965 37383 ft 457 kts 99°
2026-04-30 19:10 52.21275 8.06344 37392 ft 458 kts 99°
2026-04-30 19:11 52.19401 8.21628 37398 ft 459 kts 99°
2026-04-30 19:12 52.18134 8.31834 37402 ft 459 kts 99°
2026-04-30 19:12 52.16863 8.42039 37409 ft 460 kts 99°
2026-04-30 19:13 52.14294 8.62449 37405 ft 460 kts 99°
2026-04-30 19:14 52.12991 8.72658 37412 ft 460 kts 99°
2026-04-30 19:14 52.11683 8.82771 37404 ft 446 kts 99°
2026-04-30 19:15 52.10404 8.92639 37411 ft 448 kts 99°
2026-04-30 19:15 52.08473 9.07515 37414 ft 451 kts 99°
2026-04-30 19:16 52.07155 9.17515 37414 ft 453 kts 99°
2026-04-30 19:17 52.05162 9.32541 37425 ft 454 kts 99°
2026-04-30 19:17 52.03138 9.47584 37440 ft 455 kts 99°
2026-04-30 19:18 52.01100 9.62648 37440 ft 456 kts 99°
2026-04-30 19:19 51.99730 9.72689 37439 ft 456 kts 100°
2026-04-30 19:19 51.97655 9.87779 37443 ft 457 kts 99°
2026-04-30 19:20 51.96248 9.97842 37442 ft 458 kts 99°
2026-04-30 19:21 51.94129 10.12946 37442 ft 459 kts 100°
2026-04-30 19:22 51.91267 10.33125 37446 ft 460 kts 99°
2026-04-30 19:22 51.89148 10.47853 37452 ft 439 kts 99°
2026-04-30 19:23 51.87069 10.62201 37451 ft 436 kts 99°
2026-04-30 19:24 51.84981 10.76511 37474 ft 436 kts 99°
2026-04-30 19:25 51.81812 11.00436 37453 ft 434 kts 95°
2026-04-30 19:26 51.79766 11.19669 37451 ft 434 kts 96°
2026-04-30 19:27 51.78090 11.34059 37452 ft 434 kts 96°
2026-04-30 19:28 51.76408 11.48417 37456 ft 434 kts 96°
2026-04-30 19:29 51.74145 11.67558 37450 ft 434 kts 96°
2026-04-30 19:30 51.71865 11.86580 37467 ft 433 kts 96°
2026-04-30 19:31 51.69548 12.05620 37462 ft 432 kts 96°
2026-04-30 19:31 51.67794 12.19882 37481 ft 432 kts 96°
2026-04-30 19:32 51.66623 12.29375 37468 ft 432 kts 96°
2026-04-30 19:32 51.65440 12.38856 37460 ft 431 kts 96°
2026-04-30 19:33 51.64349 12.47511 37457 ft 431 kts 96°
2026-04-30 19:33 51.63151 12.56939 37454 ft 431 kts 96°
2026-04-30 19:34 51.61956 12.66255 37485 ft 431 kts 96°
2026-04-30 19:35 51.60140 12.80420 37467 ft 430 kts 96°
2026-04-30 19:35 51.59031 12.88968 37462 ft 429 kts 96°
2026-04-30 19:36 51.58126 12.95881 37458 ft 430 kts 96°
2026-04-30 19:36 51.56655 13.07799 37452 ft 427 kts 92°
2026-04-30 19:37 51.55959 13.16901 37477 ft 424 kts 90°
2026-04-30 19:37 51.55352 13.26319 37467 ft 424 kts 90°
2026-04-30 19:38 51.54665 13.35735 37463 ft 424 kts 91°
2026-04-30 19:38 51.53904 13.45071 37455 ft 424 kts 91°
2026-04-30 19:39 51.53119 13.54532 37449 ft 424 kts 91°
2026-04-30 19:39 51.52350 13.63859 37436 ft 422 kts 91°
2026-04-30 19:40 51.51577 13.73197 37434 ft 422 kts 91°
2026-04-30 19:40 51.50803 13.82534 37440 ft 422 kts 91°
2026-04-30 19:41 51.50015 13.91864 37438 ft 422 kts 91°
2026-04-30 19:41 51.49219 14.01206 37443 ft 422 kts 91°
2026-04-30 19:42 51.48418 14.10541 37442 ft 422 kts 91°
2026-04-30 19:42 51.47610 14.19877 37449 ft 423 kts 91°
2026-04-30 19:43 51.46795 14.29212 37453 ft 423 kts 91°
2026-04-30 19:44 51.45547 14.43218 37444 ft 423 kts 92°
2026-04-30 19:44 51.44704 14.52546 37466 ft 423 kts 92°
2026-04-30 19:45 51.43863 14.61865 37458 ft 422 kts 91°
2026-04-30 19:45 51.43022 14.71159 37448 ft 421 kts 92°
2026-04-30 19:46 51.42151 14.80448 37439 ft 423 kts 95°
2026-04-30 19:46 51.40195 14.89502 37432 ft 432 kts 104°
2026-04-30 19:47 51.38020 14.98415 37428 ft 433 kts 104°
2026-04-30 19:47 51.35815 15.07374 37453 ft 433 kts 104°
2026-04-30 19:48 51.33603 15.16321 37443 ft 433 kts 104°
2026-04-30 19:48 51.31391 15.25274 37435 ft 432 kts 104°
2026-04-30 19:49 51.29187 15.34203 37432 ft 433 kts 104°
2026-04-30 19:49 51.25851 15.47614 37427 ft 432 kts 104°
2026-04-30 19:50 51.23613 15.56518 37434 ft 432 kts 104°
2026-04-30 19:50 51.21384 15.65412 37430 ft 432 kts 104°
2026-04-30 19:51 51.19149 15.74300 37430 ft 432 kts 104°
2026-04-30 19:51 51.16902 15.83181 37439 ft 432 kts 104°
2026-04-30 19:52 51.14646 15.92066 37444 ft 432 kts 104°
2026-04-30 19:52 51.12385 16.00914 37442 ft 432 kts 104°
2026-04-30 19:53 51.10115 16.09761 37436 ft 432 kts 104°
2026-04-30 19:53 51.07834 16.18606 37431 ft 432 kts 104°
2026-04-30 19:54 51.05555 16.27436 37430 ft 432 kts 105°
2026-04-30 19:54 51.03269 16.36251 37425 ft 430 kts 104°
2026-04-30 19:55 51.01000 16.44986 37418 ft 430 kts 104°
2026-04-30 19:55 50.98707 16.53769 37414 ft 431 kts 104°
2026-04-30 19:56 50.97556 16.58148 36927 ft 429 kts 104°
2026-04-30 19:56 50.96405 16.62511 36180 ft 428 kts 104°
2026-04-30 19:56 50.95258 16.66855 35450 ft 426 kts 103°
2026-04-30 19:56 50.94119 16.71178 34797 ft 424 kts 103°
2026-04-30 19:57 50.92985 16.75484 34072 ft 421 kts 102°
2026-04-30 19:57 50.91860 16.79752 33220 ft 419 kts 102°
2026-04-30 19:57 50.90732 16.84018 32322 ft 420 kts 103°
2026-04-30 19:57 50.89604 16.88280 31387 ft 421 kts 103°
2026-04-30 19:58 50.88470 16.92559 30431 ft 422 kts 103°
2026-04-30 19:58 50.87328 16.96846 29262 ft 424 kts 103°
2026-04-30 19:58 50.86175 17.01169 28007 ft 428 kts 104°
2026-04-30 19:58 50.85009 17.05536 26725 ft 433 kts 104°
2026-04-30 19:59 50.83829 17.09948 25399 ft 439 kts 104°
2026-04-30 19:59 50.82626 17.14428 24120 ft 445 kts 105°
2026-04-30 19:59 50.80207 17.23346 22156 ft 436 kts 106°
2026-04-30 20:00 50.79013 17.27732 21271 ft 432 kts 106°
2026-04-30 20:00 50.77832 17.32084 20646 ft 431 kts 107°
2026-04-30 20:00 50.76669 17.36385 20427 ft 430 kts 107°
2026-04-30 20:00 50.75506 17.40687 19738 ft 424 kts 107°
2026-04-30 20:01 50.73194 17.49190 18128 ft 418 kts 108°
2026-04-30 20:01 50.72049 17.53384 17323 ft 414 kts 108°
2026-04-30 20:01 50.70911 17.57540 16597 ft 411 kts 108°
2026-04-30 20:02 50.68666 17.65731 15177 ft 403 kts 108°
2026-04-30 20:02 50.67553 17.69773 14506 ft 400 kts 108°
2026-04-30 20:03 50.65353 17.77747 13078 ft 393 kts 109°
2026-04-30 20:03 50.64264 17.81678 12390 ft 389 kts 109°
2026-04-30 20:03 50.63186 17.85569 11713 ft 386 kts 109°
2026-04-30 20:03 50.62112 17.89440 11447 ft 386 kts 109°
2026-04-30 20:04 50.61039 17.93304 11379 ft 386 kts 110°
2026-04-30 20:04 50.59971 17.97179 11403 ft 386 kts 108°
2026-04-30 20:04 50.59133 18.01171 11395 ft 383 kts 101°
2026-04-30 20:05 50.58455 18.09402 11396 ft 378 kts 89°
2026-04-30 20:05 50.58341 18.13531 11396 ft 378 kts 89°
2026-04-30 20:05 50.58093 18.21787 11393 ft 378 kts 89°
2026-04-30 20:06 50.57966 18.25917 11397 ft 378 kts 89°
2026-04-30 20:06 50.57836 18.30056 11396 ft 378 kts 89°
2026-04-30 20:06 50.57705 18.34187 11396 ft 378 kts 89°
2026-04-30 20:06 50.57572 18.38320 11396 ft 378 kts 89°
2026-04-30 20:07 50.57441 18.42455 11395 ft 378 kts 89°
2026-04-30 20:07 50.57310 18.46534 11396 ft 379 kts 89°
2026-04-30 20:07 50.57015 18.54822 11390 ft 379 kts 90°
2026-04-30 20:08 50.56855 18.58964 11392 ft 380 kts 90°
2026-04-30 20:08 50.56691 18.63114 11390 ft 380 kts 90°
2026-04-30 20:08 50.56530 18.67256 11390 ft 379 kts 90°
2026-04-30 20:08 50.56370 18.71393 11390 ft 379 kts 90°
2026-04-30 20:09 50.56273 18.75515 11397 ft 370 kts 87°
2026-04-30 20:09 50.56262 18.79441 11399 ft 346 kts 86°
2026-04-30 20:09 50.56341 18.86561 11404 ft 307 kts 84°
2026-04-30 20:10 50.56409 18.92926 11413 ft 279 kts 85°
2026-04-30 20:10 50.56433 18.95961 11408 ft 277 kts 85°
2026-04-30 20:10 50.56452 18.98990 11408 ft 277 kts 85°
2026-04-30 20:11 50.56121 19.05221 11416 ft 321 kts 108°
2026-04-30 20:11 50.54957 19.08456 11411 ft 357 kts 118°
2026-04-30 20:11 50.53563 19.11879 11408 ft 383 kts 119°
2026-04-30 20:12 50.50567 19.18935 11015 ft 386 kts 120°
2026-04-30 20:12 50.49073 19.22425 10278 ft 383 kts 120°
2026-04-30 20:12 50.47626 19.25819 10112 ft 364 kts 120°
2026-04-30 20:13 50.46262 19.29038 9977 ft 345 kts 120°
2026-04-30 20:13 50.44971 19.32103 9842 ft 328 kts 119°
2026-04-30 20:13 50.43760 19.34991 9715 ft 314 kts 119°
2026-04-30 20:13 50.42570 19.37832 9576 ft 301 kts 119°
2026-04-30 20:14 50.41444 19.40514 9435 ft 289 kts 118°
2026-04-30 20:14 50.40354 19.43112 9151 ft 283 kts 119°
2026-04-30 20:14 50.39293 19.45643 8792 ft 280 kts 119°
2026-04-30 20:14 50.38225 19.48188 8387 ft 279 kts 119°
2026-04-30 20:15 50.37159 19.50725 7982 ft 277 kts 119°
2026-04-30 20:15 50.36101 19.53237 7588 ft 276 kts 120°
2026-04-30 20:15 50.35047 19.55737 7179 ft 274 kts 120°
2026-04-30 20:15 50.33998 19.58220 6783 ft 273 kts 120°
2026-04-30 20:16 50.32951 19.60690 6437 ft 270 kts 120°
2026-04-30 20:16 50.31907 19.63147 6388 ft 272 kts 120°
2026-04-30 20:16 50.30858 19.65616 6390 ft 273 kts 120°
2026-04-30 20:16 50.29804 19.68095 6389 ft 273 kts 120°
2026-04-30 20:17 50.28752 19.70570 6410 ft 273 kts 120°
2026-04-30 20:17 50.27700 19.73044 6402 ft 274 kts 120°
2026-04-30 20:17 50.26658 19.75490 6396 ft 263 kts 120°
2026-04-30 20:17 50.25675 19.77779 6401 ft 246 kts 120°
2026-04-30 20:18 50.24735 19.79966 6152 ft 241 kts 120°
2026-04-30 20:18 50.23805 19.82137 5795 ft 240 kts 120°
2026-04-30 20:18 50.22880 19.84301 5421 ft 240 kts 120°
2026-04-30 20:18 50.21970 19.86439 5091 ft 238 kts 120°
2026-04-30 20:19 50.21042 19.88616 5034 ft 239 kts 120°
2026-04-30 20:19 50.20486 19.90093 5034 ft 238 kts 113°
2026-04-30 20:19 50.19749 19.93285 5035 ft 235 kts 99°
2026-04-30 20:19 50.19526 19.95790 5037 ft 232 kts 89°
2026-04-30 20:20 50.19590 19.98288 5033 ft 229 kts 78°
2026-04-30 20:20 50.19895 20.00718 5031 ft 228 kts 74°
2026-04-30 20:20 50.20224 20.03137 5030 ft 228 kts 74°
2026-04-30 20:20 50.20551 20.05564 5027 ft 228 kts 75°
2026-04-30 20:21 50.20873 20.07969 4760 ft 226 kts 74°
2026-04-30 20:21 50.21076 20.10403 4415 ft 229 kts 91°
2026-04-30 20:21 50.20592 20.12777 4096 ft 234 kts 121°
2026-04-30 20:21 50.19418 20.14467 4011 ft 226 kts 149°
2026-04-30 20:22 50.18463 20.15118 4015 ft 219 kts 162°
2026-04-30 20:22 50.17003 20.15489 4018 ft 215 kts 180°
2026-04-30 20:22 50.15534 20.15186 4027 ft 212 kts 198°
2026-04-30 20:22 50.14200 20.14248 4026 ft 210 kts 216°
2026-04-30 20:23 50.13106 20.12775 4031 ft 207 kts 233°
2026-04-30 20:23 50.12337 20.10902 4028 ft 204 kts 250°
2026-04-30 20:23 50.11938 20.08802 4034 ft 202 kts 262°
2026-04-30 20:23 50.11647 20.06659 4033 ft 202 kts 262°
2026-04-30 20:24 50.11355 20.04509 3965 ft 204 kts 262°
2026-04-30 20:24 50.11061 20.02352 3747 ft 203 kts 262°
2026-04-30 20:24 50.10767 20.00199 3485 ft 203 kts 261°
2026-04-30 20:24 50.10473 19.98055 3234 ft 202 kts 261°
2026-04-30 20:25 50.09896 19.93861 2652 ft 193 kts 261°
2026-04-30 20:25 50.09623 19.91878 2420 ft 186 kts 261°
2026-04-30 20:26 50.09120 19.88229 1902 ft 155 kts 259°
2026-04-30 20:26 50.08695 19.85148 1495 ft 140 kts 258°
2026-04-30 20:26 50.08493 19.83683 1314 ft 137 kts 258°
2026-04-30 20:27 50.08096 19.80797 944 ft 135 kts 257°
2026-04-30 20:27 50.07732 19.78178 799 ft 89 kts 258°
2026-04-30 20:28 50.07592 19.77177 802 ft 36 kts 257°
2026-04-30 20:28 50.07439 19.76860 800 ft 18 kts 167°
2026-04-30 20:29 50.07316 19.77000 800 ft 7 kts 74°
2026-04-30 20:30 50.07361 19.77345 800 ft 17 kts 77°
2026-04-30 20:30 50.07447 19.77970 800 ft 21 kts 78°
2026-04-30 20:31 50.07545 19.78667 800 ft 23 kts 77°
2026-04-30 20:32 50.07650 19.79419 800 ft 24 kts 76°
2026-04-30 20:32 50.07655 19.79683 800 ft 8 kts 148°
2026-04-30 20:33 50.07580 19.79721 800 ft 16 kts 169°
2026-04-30 20:33 50.07407 19.79780 800 ft 10 kts 168°
2026-04-30 20:33 50.07372 19.79846 800 ft 9 kts 86°
2026-04-30 20:34 50.07478 19.79943 800 ft 11 kts 349°
2026-04-30 20:34 50.07528 19.80103 800 ft 5 kts 79°
2026-04-30 20:35 50.07510 19.80131 800 ft 3 kts 161°
2026-04-30 20:35 50.07487 19.80138 800 ft 3 kts 167°
2026-04-30 20:35 50.07479 19.80141 800 ft 0 kts 167°